TimeEDT,TemperatureF,Dew PointF,Humidity,Sea Level PressureIn,VisibilityMPH,Wind Direction,Wind SpeedMPH,Gust SpeedMPH,PrecipitationIn,Events,Conditions,WindDirDegrees,DateUTC
12:56 AM,60.1,59.0,96,29.82,3.0,Variable,4.6,-,0.15,Rain,Light Rain,0,2013-06-11 04:56:00
1:56 AM,61.0,59.0,93,29.79,2.5,Variable,3.5,-,0.02,Rain,Light Rain,0,2013-06-11 05:56:00
2:56 AM,61.0,60.1,97,29.75,3.0,ESE,4.6,-,0.02,,Overcast,110,2013-06-11 06:56:00
3:54 AM,62.6,60.8,94,29.74,1.8,ESE,3.5,-,0.03,Rain,Light Rain,110,2013-06-11 07:54:00
3:56 AM,62.1,60.1,93,29.73,2.0,ESE,3.5,-,0.03,Rain,Light Rain,110,2013-06-11 07:56:00
4:56 AM,62.1,61.0,96,29.73,5.0,Calm,Calm,-,0.01,,Overcast,0,2013-06-11 08:56:00
5:56 AM,63.0,61.0,93,29.73,1.2,Calm,Calm,-,N/A,,Mist,0,2013-06-11 09:56:00
6:56 AM,64.9,63.0,93,29.73,1.2,NW,3.5,-,N/A,,Mist,310,2013-06-11 10:56:00
7:56 AM,66.9,64.9,93,29.73,1.0,Calm,Calm,-,N/A,,Mist,0,2013-06-11 11:56:00
8:56 AM,69.1,66.0,90,29.73,4.0,West,8.1,-,0.01,,Overcast,270,2013-06-11 12:56:00
9:44 AM,71.6,66.2,83,29.72,9.0,WSW,5.8,-,N/A,,Mostly Cloudy,250,2013-06-11 13:44:00
9:56 AM,72.0,66.0,81,29.71,10.0,West,8.1,-,N/A,,Mostly Cloudy,270,2013-06-11 13:56:00
10:56 AM,73.9,64.9,73,29.70,8.0,Variable,4.6,-,N/A,,Mostly Cloudy,0,2013-06-11 14:56:00
11:56 AM,77.0,64.0,64,29.69,8.0,Variable,6.9,-,N/A,,Mostly Cloudy,0,2013-06-11 15:56:00
12:56 PM,77.0,63.0,62,29.67,10.0,WSW,8.1,-,N/A,,Mostly Cloudy,240,2013-06-11 16:56:00
1:56 PM,78.1,62.1,58,29.64,10.0,Variable,6.9,16.1,N/A,,Mostly Cloudy,0,2013-06-11 17:56:00
2:56 PM,75.9,61.0,60,29.63,10.0,SW,9.2,17.3,N/A,,Mostly Cloudy,230,2013-06-11 18:56:00
3:56 PM,72.0,66.9,84,29.62,9.0,West,4.6,-,0.10,,Mostly Cloudy,260,2013-06-11 19:56:00
4:56 PM,75.0,66.0,73,29.60,10.0,WSW,8.1,20.7,N/A,,Mostly Cloudy,250,2013-06-11 20:56:00
5:56 PM,75.9,62.1,62,29.60,10.0,West,13.8,23.0,N/A,,Mostly Cloudy,270,2013-06-11 21:56:00
6:56 PM,75.0,62.1,64,29.61,10.0,WNW,15.0,19.6,N/A,,Mostly Cloudy,300,2013-06-11 22:56:00
7:56 PM,72.0,60.1,66,29.63,10.0,WNW,11.5,19.6,N/A,,Scattered Clouds,300,2013-06-11 23:56:00
8:56 PM,71.1,57.9,63,29.65,10.0,WNW,11.5,23.0,N/A,,Scattered Clouds,300,2013-06-12 00:56:00
9:56 PM,70.0,57.0,63,29.68,10.0,WNW,16.1,27.6,N/A,,Scattered Clouds,300,2013-06-12 01:56:00
10:56 PM,68.0,54.0,61,29.67,10.0,WNW,20.7,28.8,N/A,,Clear,300,2013-06-12 02:56:00
11:56 PM,66.9,53.1,61,29.68,10.0,WNW,16.1,28.8,N/A,,Clear,290,2013-06-12 03:56:00